Latham, NY

5:27 PM EST on February 10, 2016 (GMT -0500)
Albany International

Weather History for KALB - December, 2012

Change the Weather History Date:

Monday, December 3, 2012

  Actual Average Record
Temperature  
Mean Temperature 39 °F 33 °F  
Max Temperature 50 °F 41 °F 63 °F (2009)
Min Temperature 28 °F 26 °F -1 °F (1976)
Degree Days  
Heating Degree Days 26 32  
Month to date heating degree days 87 94  
Since 1 July heating degree days 1375 1498  
Cooling Degree Days 0 0  
Month to date cooling degree days 0 0  
Year to date cooling degree days 814 598  
Moisture  
Dew Point 39 °F    
Average Humidity 86    
Maximum Humidity 100    
Minimum Humidity 71    
Precipitation  
Precipitation T in 0.11 in 1.24 in (1991)
Month to date precipitation 0.26 0.32  
Year to date precipitation 33.20 36.74  
Snow  
Snow 0.00 in 0.30 in 5.20 in (1893)
Month to date snowfall 0.7 0.9  
Since 1 July snowfall 0.8 4.0  
Snow Depth 0.00 in    
Sea Level Pressure  
Sea Level Pressure 30.20 in    
Wind  
Wind Speed 6 mph (West)    
Max Wind Speed 16 mph    
Max Gust Speed 21 mph    
Visibility 9 miles    
Events Fog    
T = Trace of Precipitation, MM = Missing Value Source: NWS Daily Summary

Daily Weather History Graph

Daily Weather History Graph

Search for Another Location

Airport or City:

Trip Planner

Search our weather history database for the weather conditions in past years. The results will help you decide how hot, cold, wet, or windy it might be!

Date:

Astronomy

Dec. 03, 2012 Rise Set
Actual Time 7:08 AM EST 4:21 PM EST
Civil Twilight 6:36 AM EST 4:53 PM EST
Nautical Twilight 6:01 AM EST 5:28 PM EST
Astronomical Twilight 5:27 AM EST 6:02 PM EST
Moon 9:09 PM EST (12/3) 10:27 AM EST (12/3)
Length of Visible Light 10h 16m
Length of Day
9h 13m
Waning Gibbous, 78% of the Moon is Illuminated
Dec 3
Waning Gibbous
Dec 6
Last Quarter
Dec 13
New
Dec 20
First Quarter
Dec 28
Full

Hourly Weather History & Observations

Time (EST) Temp. Windchill Dew Point Humidity Pressure Visibility Wind Dir Wind Speed Gust Speed Precip Events Conditions
12:51 AM 46.0 °F 41.4 °F 43.0 °F 89% 30.05 in 6.0 mi South 9.2 mph - N/A   Overcast
1:51 AM 46.0 °F 41.4 °F 44.1 °F 93% 30.05 in 5.0 mi South 9.2 mph - 0.00 in   Overcast
2:51 AM 46.0 °F 43.1 °F 44.1 °F 93% 30.08 in 5.0 mi South 5.8 mph - 0.00 in   Overcast
3:51 AM 46.0 °F 44.8 °F 44.1 °F 93% 30.11 in 5.0 mi SSW 3.5 mph - 0.00 in   Overcast
4:20 AM 46.4 °F - 44.6 °F 93% 30.11 in 5.0 mi Calm Calm - N/A   Overcast
4:43 AM 48.2 °F - 42.8 °F 82% 30.11 in 10.0 mi West 6.9 mph - N/A   Mostly Cloudy
4:51 AM 48.9 °F - 43.0 °F 80% 30.12 in 10.0 mi WNW 6.9 mph - N/A   Overcast
5:51 AM 48.9 °F - 42.1 °F 77% 30.15 in 10.0 mi West 4.6 mph 17.3 mph N/A   Mostly Cloudy
6:51 AM 48.0 °F - 41.0 °F 77% 30.17 in 10.0 mi West 11.5 mph 17.3 mph N/A   Mostly Cloudy
7:32 AM 46.4 °F 41.5 °F 41.0 °F 81% 30.19 in 10.0 mi WNW 10.4 mph - N/A   Mostly Cloudy
7:51 AM 46.9 °F - 39.9 °F 77% 30.20 in 10.0 mi WNW 11.5 mph - N/A   Mostly Cloudy
8:45 AM 46.4 °F 41.9 °F 39.2 °F 76% 30.21 in 10.0 mi West 9.2 mph - N/A   Overcast
8:51 AM 46.9 °F - 39.9 °F 77% 30.22 in 10.0 mi WNW 10.4 mph 18.4 mph N/A   Overcast
9:51 AM 48.0 °F - 39.9 °F 74% 30.24 in 10.0 mi WNW 12.7 mph - N/A   Overcast
10:51 AM 48.0 °F - 39.9 °F 74% 30.25 in 10.0 mi WNW 6.9 mph - N/A   Overcast
11:51 AM 48.0 °F - 39.9 °F 74% 30.24 in 10.0 mi WNW 8.1 mph - N/A   Overcast
12:51 PM 48.0 °F - 39.9 °F 74% 30.25 in 10.0 mi WNW 5.8 mph - N/A   Overcast
1:51 PM 48.0 °F - 39.0 °F 71% 30.22 in 10.0 mi NW 10.4 mph - N/A   Overcast
2:51 PM 48.0 °F - 39.0 °F 71% 30.23 in 10.0 mi NW 9.2 mph - N/A   Overcast
3:42 PM 46.4 °F 41.9 °F 39.2 °F 76% 30.24 in 10.0 mi WNW 9.2 mph - N/A   Mostly Cloudy
3:51 PM 45.0 °F 40.6 °F 37.9 °F 76% 30.25 in 10.0 mi WNW 8.1 mph - N/A   Mostly Cloudy
4:51 PM 43.0 °F 40.3 °F 37.0 °F 80% 30.25 in 10.0 mi WNW 4.6 mph - N/A   Scattered Clouds
5:51 PM 41.0 °F - 36.0 °F 82% 30.27 in 10.0 mi Calm Calm - N/A   Partly Cloudy
6:51 PM 34.0 °F - 32.0 °F 92% 30.28 in 9.0 mi Calm Calm - N/A   Partly Cloudy
7:51 PM 34.0 °F - 33.1 °F 96% 30.28 in 7.0 mi Calm Calm - N/A   Clear
8:51 PM 34.0 °F - 33.1 °F 96% 30.28 in 6.0 mi Calm Calm - N/A   Clear
9:51 PM 30.0 °F - 28.9 °F 96% 30.29 in 8.0 mi Calm Calm - N/A Fog Shallow Fog
10:51 PM 30.0 °F - 28.9 °F 96% 30.29 in 7.0 mi Calm Calm - N/A Fog Patches of Fog
11:51 PM 30.9 °F - 30.0 °F 96% 30.28 in 10.0 mi Calm Calm - N/A Fog Shallow Fog